Location: La Pernelle
(49.6188°N, 1.2999°W)
Time: 04:16:34
(UTC+00:00)

NOSS 3-2 (A) - Pass Details

Date: 21 October 2021
Orbit: 771 x 1437 km, 63.4° (Epoch: 21 November)

Event Time Altitude Azimuth Distance (km) Brightness Sun altitude
Rises 22:10:34 0° 316° (NW) 3,927 7.4 -46.3°
Reaches altitude 10° 22:13:06 10° 315° (NW) 3,056 6.6 -46.5°
Enters shadow 22:15:55 27° 310° (NW) 2,152 5.6 -46.8°
